Tracking 20092 objects as of 14-Dec-2019
HD Live streaming from Space Station
objects crossing your sky now

SL-8 DEB

Track SL-8 DEB now!
10-day predictions


NORAD ID: 21936
Int'l Code: 1991-009CD
Perigee: 1,470.7 km
Apogee: 1,896.3 km
Inclination: 74.1 °
Period: 119.9 minutes
Semi major axis: 8054 km
RCS: 0.0437 m2 (small)
Launch date: February 12, 1991
Source: Commonwealth of Independent States (former USSR) (CIS)
Launch site: PLESETSK MISSILE AND SPACE COMPLEX (PKMTR)

Note: This is SATELLITE DEBRIS
aabbcc
Your satellite tracking list
Your tracking list is empty




NASA's NSSDC Master Catalog

Two Line Element Set (TLE):
1 21936U 91009CD  19347.96007803 +.00000156 +00000-0 +18903-2 0  9992
2 21936 074.0658 058.4638 0264206 225.8541 309.8267 12.01013588223319
Source of the keplerian elements: AFSPC